Location: *
(39.6167°S, 171.5333°W)
Time: 19:10:52
(UTC+00:00)

Aureole 1 Rocket - Pass Details

Date: 13 May 2021
Orbit: 378 x 1372 km, 73.9° (Epoch: 20 June)

Event Time Altitude Azimuth Distance (km) Brightness Sun altitude
Rises 17:49:03 0° 331° (NNW) 3,625 6.9 -6.8°
Reaches altitude 10° 17:51:23 10° 328° (NNW) 2,816 6.3 -6.4°
Maximum altitude 17:58:08 63° 247° (WSW) 1,331 4.5 -5.2°
Drops below altitude 10° 18:06:24 10° 166° (SSE) 3,407 6.8 -3.7°
Sets 18:09:29 0° 162° (SSE) 4,430 7.4 -3.1°
